Time,TemperatureF,DewpointF,PressureIn,WindDirection,WindDirectionDegrees,WindSpeedMPH,WindSpeedGustMPH,Humidity,HourlyPrecipIn,Conditions,Clouds,dailyrainin,SoftwareType,DateUTC
2013-01-13 00:04:00,56.3,44.7,30.23,West,270,6.0,10.1,65,0.00,,,0.00,WUHU216HW,2013-01-12 21:04:00,
2013-01-13 00:09:00,56.2,44.9,30.23,West,270,5.4,8.5,66,0.00,,,0.00,WUHU216HW,2013-01-12 21:09:00,
2013-01-13 00:14:00,56.2,44.9,30.23,West,270,6.0,7.6,66,0.00,,,0.00,WUHU216HW,2013-01-12 21:14:00,
2013-01-13 00:19:00,56.0,44.7,30.23,WNW,293,6.0,7.6,66,0.00,,,0.00,WUHU216HW,2013-01-12 21:19:00,
2013-01-13 00:24:00,55.8,44.6,30.23,WNW,293,4.0,7.2,66,0.00,,,0.00,WUHU216HW,2013-01-12 21:24:00,
2013-01-13 00:29:00,55.8,44.6,30.23,WNW,293,3.8,6.7,66,0.00,,,0.00,WUHU216HW,2013-01-12 21:29:00,
2013-01-13 00:34:00,55.8,44.6,30.23,WNW,293,5.4,6.5,66,0.00,,,0.00,WUHU216HW,2013-01-12 21:34:00,
2013-01-13 00:39:00,55.8,44.6,30.23,NW,315,4.5,6.7,66,0.00,,,0.00,WUHU216HW,2013-01-12 21:39:00,
2013-01-13 00:44:00,55.8,44.6,30.23,NW,315,6.5,7.8,66,0.00,,,0.00,WUHU216HW,2013-01-12 21:44:00,
2013-01-13 00:49:00,55.8,44.6,30.22,NNW,338,6.5,7.8,66,0.00,,,0.00,WUHU216HW,2013-01-12 21:49:00,
2013-01-13 00:54:00,55.8,45.0,30.22,West,270,6.9,9.8,67,0.00,,,0.00,WUHU216HW,2013-01-12 21:54:00,
2013-01-13 00:59:00,55.8,45.0,30.22,West,270,5.1,9.8,67,0.00,,,0.00,WUHU216HW,2013-01-12 21:59:00,
2013-01-13 01:04:00,55.8,44.6,30.22,WNW,293,5.4,8.5,66,0.00,,,0.00,WUHU216HW,2013-01-12 22:04:00,
2013-01-13 01:09:00,55.6,44.4,30.22,NW,315,5.4,8.7,66,0.00,,,0.00,WUHU216HW,2013-01-12 22:09:00,
2013-01-13 01:14:00,55.6,44.4,30.22,WNW,293,7.6,8.7,66,0.00,,,0.00,WUHU216HW,2013-01-12 22:14:00,
2013-01-13 01:19:00,55.6,44.4,30.22,WNW,293,5.4,8.7,66,0.00,,,0.00,WUHU216HW,2013-01-12 22:19:00,
2013-01-13 01:24:00,55.6,44.4,30.22,NW,315,5.4,8.7,66,0.00,,,0.00,WUHU216HW,2013-01-12 22:24:00,
2013-01-13 01:29:00,55.4,44.3,30.22,West,270,6.9,8.5,66,0.00,,,0.00,WUHU216HW,2013-01-12 22:29:00,
2013-01-13 01:34:00,55.1,44.3,30.22,West,270,9.4,9.4,67,0.00,,,0.00,WUHU216HW,2013-01-12 22:34:00,
2013-01-13 01:39:00,54.9,44.1,30.22,West,270,5.8,9.4,67,0.00,,,0.00,WUHU216HW,2013-01-12 22:39:00,
2013-01-13 01:44:00,54.7,44.4,30.22,NW,315,6.5,9.4,68,0.00,,,0.00,WUHU216HW,2013-01-12 22:44:00,
2013-01-13 01:49:00,54.5,44.2,30.22,WNW,293,8.9,8.9,68,0.00,,,0.00,WUHU216HW,2013-01-12 22:49:00,
2013-01-13 01:54:00,54.5,44.6,30.22,WNW,293,6.3,8.9,69,0.00,,,0.00,WUHU216HW,2013-01-12 22:54:00,
2013-01-13 01:59:00,54.5,45.0,30.22,WNW,293,5.4,8.9,70,0.00,,,0.00,WUHU216HW,2013-01-12 22:59:00,
2013-01-13 02:04:00,54.7,45.6,30.22,WNW,293,6.7,9.4,71,0.00,,,0.00,WUHU216HW,2013-01-12 23:04:00,
2013-01-13 02:09:00,54.7,45.9,30.22,West,270,7.6,9.4,72,0.00,,,0.00,WUHU216HW,2013-01-12 23:09:00,
2013-01-13 02:14:00,54.7,46.3,30.22,WNW,293,8.5,9.2,73,0.00,,,0.00,WUHU216HW,2013-01-12 23:14:00,
2013-01-13 02:19:00,54.7,46.3,30.22,WNW,293,7.6,9.2,73,0.00,,,0.00,WUHU216HW,2013-01-12 23:19:00,
2013-01-13 02:24:00,54.7,46.3,30.21,WNW,293,7.4,8.7,73,0.00,,,0.00,WUHU216HW,2013-01-12 23:24:00,
2013-01-13 02:29:00,54.7,46.3,30.21,West,270,7.2,8.5,73,0.00,,,0.00,WUHU216HW,2013-01-12 23:29:00,
2013-01-13 02:34:00,54.7,46.3,30.21,WNW,293,6.7,8.5,73,0.00,,,0.00,WUHU216HW,2013-01-12 23:34:00,
2013-01-13 02:39:00,54.5,46.1,30.21,NW,315,8.5,8.7,73,0.00,,,0.00,WUHU216HW,2013-01-12 23:39:00,
2013-01-13 02:44:00,54.5,46.1,30.21,NW,315,7.2,9.8,73,0.00,,,0.00,WUHU216HW,2013-01-12 23:44:00,
2013-01-13 02:49:00,54.5,46.1,30.21,NW,315,7.2,11.2,73,0.00,,,0.00,WUHU216HW,2013-01-12 23:49:00,
2013-01-13 02:54:00,54.5,46.1,30.21,West,270,7.6,11.2,73,0.00,,,0.00,WUHU216HW,2013-01-12 23:54:00,
2013-01-13 02:59:00,54.5,46.1,30.21,NNE,23,6.3,10.1,73,0.00,,,0.00,WUHU216HW,2013-01-12 23:59:00,
2013-01-13 03:04:00,54.4,45.9,30.21,NW,315,8.5,10.1,73,0.00,,,0.00,WUHU216HW,2013-01-13 00:04:00,
2013-01-13 03:09:00,54.4,45.9,30.21,North,0,9.6,12.8,73,0.00,,,0.00,WUHU216HW,2013-01-13 00:09:00,
2013-01-13 03:14:00,54.4,45.9,30.21,West,270,9.6,12.8,73,0.00,,,0.00,WUHU216HW,2013-01-13 00:14:00,
2013-01-13 03:19:00,54.4,45.9,30.21,NW,315,9.8,12.1,73,0.00,,,0.00,WUHU216HW,2013-01-13 00:19:00,
2013-01-13 03:24:00,54.4,45.9,30.21,WNW,293,9.2,10.7,73,0.00,,,0.00,WUHU216HW,2013-01-13 00:24:00,
2013-01-13 03:29:00,54.4,45.9,30.21,West,270,8.9,11.6,73,0.00,,,0.00,WUHU216HW,2013-01-13 00:29:00,
2013-01-13 03:34:00,54.4,45.9,30.21,WNW,293,7.6,11.6,73,0.00,,,0.00,WUHU216HW,2013-01-13 00:34:00,
2013-01-13 03:39:00,54.4,45.9,30.21,WNW,293,8.5,10.7,73,0.00,,,0.00,WUHU216HW,2013-01-13 00:39:00,
2013-01-13 03:44:00,54.4,45.9,30.21,WNW,293,6.7,10.7,73,0.00,,,0.00,WUHU216HW,2013-01-13 00:44:00,
2013-01-13 03:49:00,54.4,45.9,30.20,WNW,293,7.6,10.3,73,0.00,,,0.00,WUHU216HW,2013-01-13 00:49:00,
2013-01-13 03:54:00,54.2,45.7,30.20,NW,315,5.8,9.2,73,0.00,,,0.00,WUHU216HW,2013-01-13 00:54:00,
2013-01-13 04:00:00,54.2,45.7,30.20,West,270,6.9,9.2,73,0.00,,,0.00,WUHU216HW,2013-01-13 01:00:00,
2013-01-13 04:05:00,54.2,45.7,30.21,NNW,338,9.4,11.0,73,0.00,,,0.00,WUHU216HW,2013-01-13 01:05:00,
2013-01-13 04:10:00,54.2,45.7,30.21,West,270,7.4,11.4,73,0.00,,,0.00,WUHU216HW,2013-01-13 01:10:00,
2013-01-13 04:15:00,54.0,45.6,30.20,West,270,6.7,11.4,73,0.00,,,0.00,WUHU216HW,2013-01-13 01:15:00,
2013-01-13 04:20:00,54.0,45.6,30.20,West,270,6.7,10.5,73,0.00,,,0.00,WUHU216HW,2013-01-13 01:20:00,
2013-01-13 04:25:00,54.0,45.6,30.20,West,270,4.7,9.8,73,0.00,,,0.00,WUHU216HW,2013-01-13 01:25:00,
2013-01-13 04:30:00,54.0,45.6,30.20,West,270,6.0,9.6,73,0.00,,,0.00,WUHU216HW,2013-01-13 01:30:00,
2013-01-13 04:35:00,54.0,45.6,30.20,WNW,293,6.7,10.3,73,0.00,,,0.00,WUHU216HW,2013-01-13 01:35:00,
2013-01-13 04:40:00,53.8,45.4,30.20,WNW,293,8.3,10.3,73,0.00,,,0.00,WUHU216HW,2013-01-13 01:40:00,
2013-01-13 04:45:00,53.6,45.5,30.20,NW,315,5.4,10.1,74,0.00,,,0.00,WUHU216HW,2013-01-13 01:45:00,
2013-01-13 04:50:00,53.6,45.5,30.20,North,0,6.7,9.2,74,0.00,,,0.00,WUHU216HW,2013-01-13 01:50:00,
2013-01-13 04:55:00,53.6,45.5,30.20,West,270,6.7,8.7,74,0.00,,,0.00,WUHU216HW,2013-01-13 01:55:00,
2013-01-13 05:00:00,53.6,45.5,30.20,West,270,6.9,9.2,74,0.00,,,0.00,WUHU216HW,2013-01-13 02:00:00,
2013-01-13 05:05:00,53.5,45.4,30.20,WNW,293,5.8,9.2,74,0.00,,,0.00,WUHU216HW,2013-01-13 02:05:00,
2013-01-13 05:10:00,53.5,45.4,30.20,West,270,9.4,9.4,74,0.00,,,0.00,WUHU216HW,2013-01-13 02:10:00,
2013-01-13 05:15:00,53.5,45.4,30.20,WNW,293,7.2,9.4,74,0.00,,,0.00,WUHU216HW,2013-01-13 02:15:00,
2013-01-13 05:20:00,53.5,45.4,30.20,WNW,293,8.5,9.4,74,0.00,,,0.00,WUHU216HW,2013-01-13 02:20:00,
2013-01-13 05:25:00,53.5,45.4,30.21,NNW,338,5.6,9.2,74,0.00,,,0.00,WUHU216HW,2013-01-13 02:25:00,
2013-01-13 05:30:00,53.6,45.5,30.21,West,270,10.5,10.5,74,0.00,,,0.00,WUHU216HW,2013-01-13 02:30:00,
2013-01-13 05:35:00,53.6,45.5,30.21,West,270,8.5,11.2,74,0.00,,,0.00,WUHU216HW,2013-01-13 02:35:00,
2013-01-13 05:40:00,53.6,45.5,30.21,NW,315,6.5,11.2,74,0.00,,,0.00,WUHU216HW,2013-01-13 02:40:00,
2013-01-13 05:45:00,53.6,45.5,30.22,WNW,293,7.6,9.8,74,0.00,,,0.00,WUHU216HW,2013-01-13 02:45:00,
2013-01-13 05:50:00,53.6,45.5,30.22,NNW,338,6.7,8.5,74,0.00,,,0.00,WUHU216HW,2013-01-13 02:50:00,
2013-01-13 05:55:00,53.6,45.5,30.22,WNW,293,8.9,10.5,74,0.00,,,0.00,WUHU216HW,2013-01-13 02:55:00,
2013-01-13 06:00:00,53.6,45.5,30.22,West,270,10.1,11.4,74,0.00,,,0.00,WUHU216HW,2013-01-13 03:00:00,
2013-01-13 06:05:00,53.8,45.7,30.22,WNW,293,7.4,11.4,74,0.00,,,0.00,WUHU216HW,2013-01-13 03:05:00,
2013-01-13 06:10:00,54.0,45.9,30.23,WNW,293,13.2,13.9,74,0.00,,,0.00,WUHU216HW,2013-01-13 03:10:00,
2013-01-13 06:15:00,54.0,45.9,30.22,West,270,13.9,15.0,74,0.00,,,0.00,WUHU216HW,2013-01-13 03:15:00,
2013-01-13 06:20:00,54.2,46.1,30.22,NW,315,6.5,15.0,74,0.00,,,0.00,WUHU216HW,2013-01-13 03:20:00,
2013-01-13 06:25:00,54.2,46.1,30.22,NW,315,6.3,13.9,74,0.00,,,0.00,WUHU216HW,2013-01-13 03:25:00,
2013-01-13 06:30:00,54.2,46.1,30.22,NW,315,6.3,9.2,74,0.00,,,0.00,WUHU216HW,2013-01-13 03:30:00,
2013-01-13 06:35:00,54.4,46.3,30.22,WNW,293,8.1,9.2,74,0.00,,,0.00,WUHU216HW,2013-01-13 03:35:00,
2013-01-13 06:40:00,54.4,46.3,30.21,NW,315,6.9,10.1,74,0.00,,,0.00,WUHU216HW,2013-01-13 03:40:00,
2013-01-13 06:45:00,54.4,45.9,30.22,NW,315,6.9,10.3,73,0.00,,,0.00,WUHU216HW,2013-01-13 03:45:00,
2013-01-13 06:50:00,54.4,45.9,30.22,West,270,8.5,10.3,73,0.00,,,0.00,WUHU216HW,2013-01-13 03:50:00,
2013-01-13 06:55:00,54.5,46.1,30.22,NW,315,9.4,10.3,73,0.00,,,0.00,WUHU216HW,2013-01-13 03:55:00,
2013-01-13 07:00:00,54.7,46.3,30.22,WNW,293,12.1,12.1,73,0.00,,,0.00,WUHU216HW,2013-01-13 04:00:00,
2013-01-13 07:05:00,54.7,45.9,30.21,NW,315,11.6,12.1,72,0.00,,,0.00,WUHU216HW,2013-01-13 04:05:00,
2013-01-13 07:10:00,54.9,46.1,30.21,WNW,293,11.0,13.9,72,0.00,,,0.00,WUHU216HW,2013-01-13 04:10:00,
2013-01-13 07:15:00,54.9,46.1,30.22,WNW,293,10.1,13.9,72,0.00,,,0.00,WUHU216HW,2013-01-13 04:15:00,
2013-01-13 07:20:00,55.1,46.3,30.22,West,270,10.5,12.8,72,0.00,,,0.00,WUHU216HW,2013-01-13 04:20:00,
2013-01-13 07:25:00,55.1,45.9,30.21,WNW,293,7.4,12.1,71,0.00,,,0.00,WUHU216HW,2013-01-13 04:25:00,
2013-01-13 07:30:00,55.3,46.1,30.21,NNW,338,7.6,11.6,71,0.00,,,0.00,WUHU216HW,2013-01-13 04:30:00,
2013-01-13 07:35:00,55.4,45.9,30.21,WNW,293,11.2,11.2,70,0.00,,,0.00,WUHU216HW,2013-01-13 04:35:00,
2013-01-13 07:40:00,55.4,45.9,30.22,WNW,293,6.5,12.5,70,0.00,,,0.00,WUHU216HW,2013-01-13 04:40:00,
2013-01-13 07:45:00,55.6,46.1,30.22,NNW,338,6.7,12.5,70,0.00,,,0.00,WUHU216HW,2013-01-13 04:45:00,
2013-01-13 07:50:00,56.0,46.0,30.21,WNW,293,9.2,10.3,69,0.00,,,0.00,WUHU216HW,2013-01-13 04:50:00,
2013-01-13 07:55:00,56.2,46.2,30.22,West,270,10.3,12.5,69,0.00,,,0.00,WUHU216HW,2013-01-13 04:55:00,
2013-01-13 08:00:00,56.2,46.2,30.22,NW,315,12.1,12.5,69,0.00,,,0.00,WUHU216HW,2013-01-13 05:00:00,
2013-01-13 08:01:00,56.2,46.2,30.22,West,270,10.7,12.5,69,0.00,,,0.00,WUHU216HW,2013-01-13 05:01:00,
2013-01-13 08:03:00,56.3,46.3,30.22,WNW,293,6.7,12.1,69,0.00,,,0.00,WUHU216HW,2013-01-13 05:03:00,
2013-01-13 08:08:00,56.5,46.1,30.22,NW,315,10.1,12.1,68,0.00,,,0.00,WUHU216HW,2013-01-13 05:08:00,
2013-01-13 08:13:00,56.5,46.1,30.21,NW,315,8.5,12.1,68,0.00,,,0.00,WUHU216HW,2013-01-13 05:13:00,
2013-01-13 08:18:00,56.9,46.0,30.22,NW,315,9.2,10.7,67,0.00,,,0.00,WUHU216HW,2013-01-13 05:18:00,
2013-01-13 08:23:00,56.9,46.0,30.22,NW,315,10.7,11.0,67,0.00,,,0.00,WUHU216HW,2013-01-13 05:23:00,
2013-01-13 08:28:00,57.2,46.4,30.22,WSW,248,10.7,11.9,67,0.00,,,0.00,WUHU216HW,2013-01-13 05:28:00,
2013-01-13 08:33:00,57.4,46.1,30.22,NNW,338,8.9,11.9,66,0.00,,,0.00,WUHU216HW,2013-01-13 05:33:00,
2013-01-13 08:38:00,57.6,46.3,30.22,NW,315,6.3,11.4,66,0.00,,,0.00,WUHU216HW,2013-01-13 05:38:00,
2013-01-13 08:43:00,57.8,46.4,30.22,West,270,6.0,10.1,66,0.00,,,0.00,WUHU216HW,2013-01-13 05:43:00,
2013-01-13 08:48:00,58.1,46.4,30.22,WNW,293,7.8,11.4,65,0.00,,,0.00,WUHU216HW,2013-01-13 05:48:00,
2013-01-13 08:53:00,58.3,46.5,30.22,NW,315,10.5,15.0,65,0.00,,,0.00,WUHU216HW,2013-01-13 05:53:00,
2013-01-13 08:58:00,58.3,46.5,30.22,WNW,293,10.5,15.0,65,0.00,,,0.00,WUHU216HW,2013-01-13 05:58:00,
2013-01-13 09:03:00,58.7,46.5,30.22,West,270,12.5,14.3,64,0.00,,,0.00,WUHU216HW,2013-01-13 06:03:00,
2013-01-13 09:08:00,58.7,46.5,30.22,WNW,293,9.2,16.1,64,0.00,,,0.00,WUHU216HW,2013-01-13 06:08:00,
2013-01-13 09:13:00,58.9,46.7,30.22,West,270,13.9,16.1,64,0.00,,,0.00,WUHU216HW,2013-01-13 06:13:00,
2013-01-13 09:18:00,59.0,46.8,30.22,West,270,12.8,15.0,64,0.00,,,0.00,WUHU216HW,2013-01-13 06:18:00,
2013-01-13 09:23:00,59.4,46.8,30.22,North,0,10.5,14.3,63,0.00,,,0.00,WUHU216HW,2013-01-13 06:23:00,
2013-01-13 09:28:00,59.4,46.8,30.22,West,270,12.1,14.3,63,0.00,,,0.00,WUHU216HW,2013-01-13 06:28:00,
2013-01-13 09:33:00,59.2,46.6,30.22,NW,315,9.6,14.5,63,0.00,,,0.00,WUHU216HW,2013-01-13 06:33:00,
2013-01-13 09:38:00,59.2,46.6,30.22,WNW,293,12.1,14.5,63,0.00,,,0.00,WUHU216HW,2013-01-13 06:38:00,
2013-01-13 09:43:00,59.6,47.0,30.22,WNW,293,6.9,13.6,63,0.00,,,0.00,WUHU216HW,2013-01-13 06:43:00,
2013-01-13 09:48:00,59.9,46.9,30.21,WNW,293,12.3,12.5,62,0.00,,,0.00,WUHU216HW,2013-01-13 06:48:00,
2013-01-13 09:53:00,60.5,47.9,30.21,WNW,293,10.5,13.6,63,0.00,,,0.00,WUHU216HW,2013-01-13 06:53:00,
2013-01-13 09:58:00,60.8,47.8,30.21,WNW,293,12.1,13.6,62,0.00,,,0.00,WUHU216HW,2013-01-13 06:58:00,
2013-01-13 10:03:00,60.8,47.8,30.21,NNW,338,9.8,13.2,62,0.00,,,0.00,WUHU216HW,2013-01-13 07:03:00,
2013-01-13 10:08:00,61.0,48.0,30.20,WNW,293,12.5,13.9,62,0.00,,,0.00,WUHU216HW,2013-01-13 07:08:00,
2013-01-13 10:13:00,60.8,47.8,30.20,West,270,13.4,13.9,62,0.00,,,0.00,WUHU216HW,2013-01-13 07:13:00,
2013-01-13 10:18:00,61.0,48.0,30.20,NW,315,7.6,13.4,62,0.00,,,0.00,WUHU216HW,2013-01-13 07:18:00,
2013-01-13 10:23:00,61.0,48.0,30.20,West,270,9.2,13.4,62,0.00,,,0.00,WUHU216HW,2013-01-13 07:23:00,
2013-01-13 10:28:00,61.4,48.3,30.20,WNW,293,6.3,12.3,62,0.00,,,0.00,WUHU216HW,2013-01-13 07:28:00,
2013-01-13 10:33:00,61.6,48.1,30.20,West,270,9.8,13.4,61,0.00,,,0.00,WUHU216HW,2013-01-13 07:33:00,
2013-01-13 10:38:00,61.9,48.3,30.20,NW,315,6.7,13.4,61,0.00,,,0.00,WUHU216HW,2013-01-13 07:38:00,
2013-01-13 10:43:00,62.3,48.2,30.19,NNW,338,11.4,13.4,60,0.00,,,0.00,WUHU216HW,2013-01-13 07:43:00,
2013-01-13 10:48:00,62.3,48.2,30.20,NW,315,7.8,13.4,60,0.00,,,0.00,WUHU216HW,2013-01-13 07:48:00,
2013-01-13 10:53:00,62.6,48.6,30.19,WNW,293,13.9,16.3,60,0.00,,,0.00,WUHU216HW,2013-01-13 07:53:00,
2013-01-13 10:58:00,62.5,48.4,30.19,WNW,293,8.5,17.2,60,0.00,,,0.00,WUHU216HW,2013-01-13 07:58:00,
2013-01-13 11:03:00,62.6,48.2,30.19,NW,315,10.1,17.2,59,0.00,,,0.00,WUHU216HW,2013-01-13 08:03:00,
2013-01-13 11:08:00,62.6,48.6,30.18,NW,315,10.7,15.4,60,0.00,,,0.00,WUHU216HW,2013-01-13 08:08:00,
2013-01-13 11:13:00,62.6,48.2,30.18,NW,315,11.4,17.2,59,0.00,,,0.00,WUHU216HW,2013-01-13 08:13:00,
2013-01-13 11:18:00,62.5,48.4,30.18,WNW,293,10.1,17.2,60,0.00,,,0.00,WUHU216HW,2013-01-13 08:18:00,
2013-01-13 11:23:00,62.6,48.6,30.18,NW,315,10.1,15.7,60,0.00,,,0.00,WUHU216HW,2013-01-13 08:23:00,
2013-01-13 11:28:00,62.8,48.8,30.18,WNW,293,11.0,12.8,60,0.00,,,0.00,WUHU216HW,2013-01-13 08:28:00,
2013-01-13 11:33:00,63.0,48.4,30.17,WNW,293,10.7,17.0,59,0.00,,,0.00,WUHU216HW,2013-01-13 08:33:00,
2013-01-13 11:38:00,62.8,49.1,30.17,WNW,293,9.6,17.0,61,0.00,,,0.00,WUHU216HW,2013-01-13 08:38:00,
2013-01-13 11:43:00,62.8,49.1,30.16,NW,315,13.2,15.2,61,0.00,,,0.00,WUHU216HW,2013-01-13 08:43:00,
2013-01-13 11:48:00,62.8,49.1,30.15,WNW,293,13.6,14.1,61,0.00,,,0.00,WUHU216HW,2013-01-13 08:48:00,
2013-01-13 11:53:00,63.0,49.0,30.15,West,270,8.7,16.8,60,0.00,,,0.00,WUHU216HW,2013-01-13 08:53:00,
2013-01-13 11:58:00,63.0,49.3,30.16,WNW,293,10.5,16.8,61,0.00,,,0.00,WUHU216HW,2013-01-13 08:58:00,
2013-01-13 12:03:00,63.4,49.2,30.16,West,270,11.9,14.1,60,0.00,,,0.00,WUHU216HW,2013-01-13 09:03:00,
2013-01-13 12:08:00,63.4,48.8,30.15,WSW,248,10.7,15.2,59,0.00,,,0.00,WUHU216HW,2013-01-13 09:08:00,
2013-01-13 12:13:00,63.5,49.0,30.15,WNW,293,10.5,15.2,59,0.00,,,0.00,WUHU216HW,2013-01-13 09:13:00,
2013-01-13 12:18:00,63.5,49.0,30.15,West,270,15.9,17.0,59,0.00,,,0.00,WUHU216HW,2013-01-13 09:18:00,
2013-01-13 12:23:00,63.4,48.8,30.15,NNW,338,7.6,17.0,59,0.00,,,0.00,WUHU216HW,2013-01-13 09:23:00,
2013-01-13 12:28:00,63.4,48.8,30.14,WNW,293,11.4,15.9,59,0.00,,,0.00,WUHU216HW,2013-01-13 09:28:00,
2013-01-13 12:33:00,63.7,48.6,30.14,NW,315,10.5,14.3,58,0.00,,,0.00,WUHU216HW,2013-01-13 09:33:00,
2013-01-13 12:38:00,63.7,48.6,30.14,WNW,293,12.5,14.1,58,0.00,,,0.00,WUHU216HW,2013-01-13 09:38:00,
2013-01-13 12:43:00,64.1,48.4,30.13,NW,315,11.4,17.7,57,0.00,,,0.00,WUHU216HW,2013-01-13 09:43:00,
2013-01-13 12:48:00,64.1,49.0,30.13,WSW,248,8.9,17.7,58,0.00,,,0.00,WUHU216HW,2013-01-13 09:48:00,
2013-01-13 12:53:00,64.4,48.8,30.13,NW,315,11.9,15.2,57,0.00,,,0.00,WUHU216HW,2013-01-13 09:53:00,
2013-01-13 12:58:00,64.6,48.4,30.13,WNW,293,15.0,17.0,56,0.00,,,0.00,WUHU216HW,2013-01-13 09:58:00,
2013-01-13 13:03:00,65.0,48.8,30.13,NNW,338,10.3,17.0,56,0.00,,,0.00,WUHU216HW,2013-01-13 10:03:00,
2013-01-13 13:08:00,65.0,48.8,30.13,WNW,293,10.1,13.9,56,0.00,,,0.00,WUHU216HW,2013-01-13 10:08:00,
2013-01-13 13:13:00,65.2,48.5,30.13,NNW,338,8.9,13.9,55,0.00,,,0.00,WUHU216HW,2013-01-13 10:13:00,
2013-01-13 13:18:00,65.3,48.7,30.12,NNW,338,8.5,14.3,55,0.00,,,0.00,WUHU216HW,2013-01-13 10:18:00,
2013-01-13 13:23:00,65.9,48.8,30.12,West,270,7.6,14.3,54,0.00,,,0.00,WUHU216HW,2013-01-13 10:23:00,
2013-01-13 13:28:00,65.5,48.4,30.12,NW,315,14.1,15.0,54,0.00,,,0.00,WUHU216HW,2013-01-13 10:28:00,
2013-01-13 13:33:00,65.5,48.9,30.12,NNW,338,7.2,15.0,55,0.00,,,0.00,WUHU216HW,2013-01-13 10:33:00,
2013-01-13 13:38:00,65.9,48.8,30.12,WNW,293,7.4,14.1,54,0.00,,,0.00,WUHU216HW,2013-01-13 10:38:00,
2013-01-13 13:43:00,66.1,48.4,30.12,NNW,338,14.8,14.8,53,0.00,,,0.00,WUHU216HW,2013-01-13 10:43:00,
2013-01-13 13:48:00,66.1,48.4,30.12,WNW,293,9.4,15.2,53,0.00,,,0.00,WUHU216HW,2013-01-13 10:48:00,
2013-01-13 13:53:00,66.1,48.4,30.12,NNW,338,13.0,15.2,53,0.00,,,0.00,WUHU216HW,2013-01-13 10:53:00,
2013-01-13 13:58:00,65.7,48.6,30.12,WSW,248,8.3,15.4,54,0.00,,,0.00,WUHU216HW,2013-01-13 10:58:00,
2013-01-13 14:03:00,65.9,48.8,30.12,NW,315,12.5,16.1,54,0.00,,,0.00,WUHU216HW,2013-01-13 11:03:00,
2013-01-13 14:09:00,66.1,48.4,30.12,WNW,293,7.4,16.1,53,0.00,,,0.00,WUHU216HW,2013-01-13 11:09:00,
2013-01-13 14:14:00,66.1,48.0,30.13,NNW,338,13.2,14.5,52,0.00,,,0.00,WUHU216HW,2013-01-13 11:14:00,
2013-01-13 14:19:00,66.1,48.4,30.13,NW,315,8.9,15.9,53,0.00,,,0.00,WUHU216HW,2013-01-13 11:19:00,
2013-01-13 14:24:00,66.2,48.2,30.12,NW,315,13.9,15.9,52,0.00,,,0.00,WUHU216HW,2013-01-13 11:24:00,
2013-01-13 14:29:00,66.1,48.4,30.12,NW,315,16.1,16.1,53,0.00,,,0.00,WUHU216HW,2013-01-13 11:29:00,
2013-01-13 14:34:00,66.1,48.0,30.12,NW,315,10.7,16.1,52,0.00,,,0.00,WUHU216HW,2013-01-13 11:34:00,
2013-01-13 14:39:00,66.2,48.2,30.12,NW,315,7.4,16.1,52,0.00,,,0.00,WUHU216HW,2013-01-13 11:39:00,
2013-01-13 14:44:00,66.4,48.3,30.11,NNW,338,9.8,13.4,52,0.00,,,0.00,WUHU216HW,2013-01-13 11:44:00,
2013-01-13 14:49:00,66.4,47.8,30.12,NNW,338,7.2,13.4,51,0.00,,,0.00,WUHU216HW,2013-01-13 11:49:00,
2013-01-13 14:54:00,66.8,48.2,30.12,NW,315,8.3,12.8,51,0.00,,,0.00,WUHU216HW,2013-01-13 11:54:00,
2013-01-13 14:59:00,66.4,47.8,30.12,NW,315,9.8,15.2,51,0.00,,,0.00,WUHU216HW,2013-01-13 11:59:00,
2013-01-13 15:04:00,66.2,48.2,30.13,NW,315,9.6,15.2,52,0.00,,,0.00,WUHU216HW,2013-01-13 12:04:00,
2013-01-13 15:09:00,66.1,48.0,30.12,WSW,248,13.4,14.1,52,0.00,,,0.00,WUHU216HW,2013-01-13 12:09:00,
2013-01-13 15:14:00,66.1,47.4,30.12,West,270,10.5,14.1,51,0.00,,,0.00,WUHU216HW,2013-01-13 12:14:00,
2013-01-13 15:19:00,65.9,47.3,30.12,NNW,338,11.4,13.4,51,0.00,,,0.00,WUHU216HW,2013-01-13 12:19:00,
2013-01-13 15:24:00,66.1,48.0,30.12,NE,45,6.9,13.2,52,0.00,,,0.00,WUHU216HW,2013-01-13 12:24:00,
2013-01-13 15:29:00,65.9,47.8,30.12,North,0,10.5,11.4,52,0.00,,,0.00,WUHU216HW,2013-01-13 12:29:00,
2013-01-13 15:34:00,65.9,47.8,30.13,WNW,293,10.5,13.2,52,0.00,,,0.00,WUHU216HW,2013-01-13 12:34:00,
2013-01-13 15:39:00,65.9,47.8,30.13,West,270,7.6,13.2,52,0.00,,,0.00,WUHU216HW,2013-01-13 12:39:00,
2013-01-13 15:44:00,65.7,47.1,30.12,NW,315,11.4,12.8,51,0.00,,,0.00,WUHU216HW,2013-01-13 12:44:00,
2013-01-13 15:49:00,65.7,47.6,30.12,NW,315,8.5,12.8,52,0.00,,,0.00,WUHU216HW,2013-01-13 12:49:00,
2013-01-13 15:54:00,65.5,46.9,30.12,NW,315,10.1,11.9,51,0.00,,,0.00,WUHU216HW,2013-01-13 12:54:00,
2013-01-13 15:59:00,65.5,47.4,30.12,NW,315,6.7,11.9,52,0.00,,,0.00,WUHU216HW,2013-01-13 12:59:00,
2013-01-13 16:04:00,65.5,46.9,30.12,NW,315,8.9,12.8,51,0.00,,,0.00,WUHU216HW,2013-01-13 13:04:00,
2013-01-13 16:09:00,65.3,46.7,30.13,NNW,338,5.4,12.8,51,0.00,,,0.00,WUHU216HW,2013-01-13 13:09:00,
2013-01-13 16:14:00,65.3,46.7,30.13,NNW,338,9.2,11.0,51,0.00,,,0.00,WUHU216HW,2013-01-13 13:14:00,
2013-01-13 16:19:00,65.2,47.1,30.12,NW,315,6.7,10.7,52,0.00,,,0.00,WUHU216HW,2013-01-13 13:19:00,
2013-01-13 16:24:00,65.0,47.3,30.13,WNW,293,8.5,10.3,53,0.00,,,0.00,WUHU216HW,2013-01-13 13:24:00,
2013-01-13 16:29:00,64.8,47.7,30.13,WNW,293,10.7,10.7,54,0.00,,,0.00,WUHU216HW,2013-01-13 13:29:00,
2013-01-13 16:34:00,64.6,48.0,30.12,WNW,293,9.6,10.7,55,0.00,,,0.00,WUHU216HW,2013-01-13 13:34:00,
2013-01-13 16:39:00,64.3,48.2,30.13,West,270,5.6,11.9,56,0.00,,,0.00,WUHU216HW,2013-01-13 13:39:00,
2013-01-13 16:44:00,64.3,48.6,30.13,NW,315,4.7,11.9,57,0.00,,,0.00,WUHU216HW,2013-01-13 13:44:00,
2013-01-13 16:49:00,64.3,48.6,30.13,NW,315,10.5,11.4,57,0.00,,,0.00,WUHU216HW,2013-01-13 13:49:00,
2013-01-13 16:54:00,64.1,48.4,30.13,NW,315,8.5,11.6,57,0.00,,,0.00,WUHU216HW,2013-01-13 13:54:00,
2013-01-13 16:59:00,63.7,48.6,30.13,NW,315,8.1,11.6,58,0.00,,,0.00,WUHU216HW,2013-01-13 13:59:00,
2013-01-13 17:04:00,63.7,48.2,30.13,NW,315,9.8,11.6,57,0.00,,,0.00,WUHU216HW,2013-01-13 14:04:00,
2013-01-13 17:09:00,63.5,48.4,30.12,NW,315,12.1,12.1,58,0.00,,,0.00,WUHU216HW,2013-01-13 14:09:00,
2013-01-13 17:14:00,63.4,48.2,30.13,North,0,6.9,12.1,58,0.00,,,0.00,WUHU216HW,2013-01-13 14:14:00,
2013-01-13 17:19:00,63.4,48.2,30.13,NW,315,9.8,12.1,58,0.00,,,0.00,WUHU216HW,2013-01-13 14:19:00,
2013-01-13 17:24:00,63.2,48.2,30.13,NW,315,7.6,9.8,58,0.00,,,0.00,WUHU216HW,2013-01-13 14:24:00,
2013-01-13 17:29:00,63.2,48.2,30.13,NNW,338,6.9,9.8,58,0.00,,,0.00,WUHU216HW,2013-01-13 14:29:00,
2013-01-13 17:34:00,63.0,48.0,30.13,NW,315,4.7,9.2,58,0.00,,,0.00,WUHU216HW,2013-01-13 14:34:00,
2013-01-13 17:39:00,63.0,47.4,30.13,WNW,293,10.1,11.9,57,0.00,,,0.00,WUHU216HW,2013-01-13 14:39:00,
2013-01-13 17:44:00,63.0,46.0,30.13,WNW,293,6.9,11.9,54,0.00,,,0.00,WUHU216HW,2013-01-13 14:44:00,
2013-01-13 17:49:00,63.0,46.0,30.14,NW,315,10.1,13.4,54,0.00,,,0.00,WUHU216HW,2013-01-13 14:49:00,
2013-01-13 17:54:00,62.8,45.8,30.14,WNW,293,9.6,13.4,54,0.00,,,0.00,WUHU216HW,2013-01-13 14:54:00,
2013-01-13 17:59:00,62.8,46.4,30.14,NW,315,8.9,12.1,55,0.00,,,0.00,WUHU216HW,2013-01-13 14:59:00,
2013-01-13 18:04:00,62.6,46.6,30.14,West,270,7.8,12.8,56,0.00,,,0.00,WUHU216HW,2013-01-13 15:04:00,
2013-01-13 18:09:00,62.6,46.6,30.14,NW,315,6.9,12.8,56,0.00,,,0.00,WUHU216HW,2013-01-13 15:09:00,
2013-01-13 18:14:00,62.3,46.8,30.13,NW,315,9.2,11.2,57,0.00,,,0.00,WUHU216HW,2013-01-13 15:14:00,
2013-01-13 18:19:00,62.3,46.8,30.14,West,270,7.8,11.9,57,0.00,,,0.00,WUHU216HW,2013-01-13 15:19:00,
2013-01-13 18:24:00,62.3,46.8,30.14,West,270,8.1,11.9,57,0.00,,,0.00,WUHU216HW,2013-01-13 15:24:00,
2013-01-13 18:29:00,61.9,47.0,30.14,NW,315,8.9,12.5,58,0.00,,,0.00,WUHU216HW,2013-01-13 15:29:00,
2013-01-13 18:34:00,61.9,47.0,30.14,NW,315,5.1,12.5,58,0.00,,,0.00,WUHU216HW,2013-01-13 15:34:00,
2013-01-13 18:39:00,61.9,47.0,30.14,NW,315,8.1,8.5,58,0.00,,,0.00,WUHU216HW,2013-01-13 15:39:00,
2013-01-13 18:44:00,61.7,46.8,30.14,NNW,338,6.7,8.5,58,0.00,,,0.00,WUHU216HW,2013-01-13 15:44:00,
2013-01-13 18:49:00,61.7,46.8,30.14,WNW,293,3.6,8.5,58,0.00,,,0.00,WUHU216HW,2013-01-13 15:49:00,
2013-01-13 18:54:00,61.6,46.6,30.14,NW,315,7.2,7.2,58,0.00,,,0.00,WUHU216HW,2013-01-13 15:54:00,
2013-01-13 18:59:00,61.6,47.2,30.14,NNW,338,5.6,8.1,59,0.00,,,0.00,WUHU216HW,2013-01-13 15:59:00,
2013-01-13 19:04:00,61.4,47.0,30.13,NNW,338,5.4,8.3,59,0.00,,,0.00,WUHU216HW,2013-01-13 16:04:00,
2013-01-13 19:09:00,61.2,46.8,30.14,WNW,293,6.9,11.0,59,0.00,,,0.00,WUHU216HW,2013-01-13 16:09:00,
2013-01-13 19:14:00,61.2,46.8,30.14,NW,315,9.2,11.0,59,0.00,,,0.00,WUHU216HW,2013-01-13 16:14:00,
2013-01-13 19:19:00,61.2,46.8,30.13,NW,315,5.6,10.5,59,0.00,,,0.00,WUHU216HW,2013-01-13 16:19:00,
2013-01-13 19:24:00,61.0,46.6,30.13,WNW,293,8.5,9.2,59,0.00,,,0.00,WUHU216HW,2013-01-13 16:24:00,
2013-01-13 19:29:00,61.0,47.2,30.14,NW,315,10.1,10.1,60,0.00,,,0.00,WUHU216HW,2013-01-13 16:29:00,
2013-01-13 19:34:00,60.8,47.0,30.13,West,270,8.3,10.1,60,0.00,,,0.00,WUHU216HW,2013-01-13 16:34:00,
2013-01-13 19:39:00,60.8,47.0,30.13,West,270,7.2,10.1,60,0.00,,,0.00,WUHU216HW,2013-01-13 16:39:00,
2013-01-13 19:44:00,60.8,47.0,30.14,WNW,293,6.3,11.2,60,0.00,,,0.00,WUHU216HW,2013-01-13 16:44:00,
2013-01-13 19:49:00,60.7,47.3,30.14,WNW,293,5.4,11.2,61,0.00,,,0.00,WUHU216HW,2013-01-13 16:49:00,
2013-01-13 19:54:00,60.5,47.1,30.14,NW,315,7.2,9.4,61,0.00,,,0.00,WUHU216HW,2013-01-13 16:54:00,
2013-01-13 19:59:00,60.5,47.1,30.14,NW,315,5.4,9.4,61,0.00,,,0.00,WUHU216HW,2013-01-13 16:59:00,
2013-01-13 20:04:00,60.5,47.1,30.14,WNW,293,5.4,9.2,61,0.00,,,0.00,WUHU216HW,2013-01-13 17:04:00,
2013-01-13 20:09:00,60.3,46.9,30.14,NW,315,9.8,10.3,61,0.00,,,0.00,WUHU216HW,2013-01-13 17:09:00,
2013-01-13 20:14:00,60.3,47.3,30.13,WNW,293,6.9,10.3,62,0.00,,,0.00,WUHU216HW,2013-01-13 17:14:00,
2013-01-13 20:19:00,60.3,47.3,30.13,WNW,293,9.8,9.8,62,0.00,,,0.00,WUHU216HW,2013-01-13 17:19:00,
2013-01-13 20:24:00,60.1,47.1,30.13,NW,315,7.4,9.8,62,0.00,,,0.00,WUHU216HW,2013-01-13 17:24:00,
2013-01-13 20:29:00,60.1,47.1,30.14,NW,315,7.6,9.8,62,0.00,,,0.00,WUHU216HW,2013-01-13 17:29:00,
2013-01-13 20:34:00,60.1,47.5,30.14,NW,315,9.2,10.5,63,0.00,,,0.00,WUHU216HW,2013-01-13 17:34:00,
2013-01-13 20:39:00,60.1,47.1,30.14,WNW,293,5.4,10.5,62,0.00,,,0.00,WUHU216HW,2013-01-13 17:39:00,
2013-01-13 20:44:00,60.1,47.1,30.14,WNW,293,7.6,9.4,62,0.00,,,0.00,WUHU216HW,2013-01-13 17:44:00,
2013-01-13 20:49:00,59.9,46.9,30.14,NW,315,5.8,9.6,62,0.00,,,0.00,WUHU216HW,2013-01-13 17:49:00,
2013-01-13 20:54:00,59.8,47.2,30.13,North,0,5.6,9.8,63,0.00,,,0.00,WUHU216HW,2013-01-13 17:54:00,
2013-01-13 20:59:00,59.8,47.2,30.14,NNW,338,5.1,9.8,63,0.00,,,0.00,WUHU216HW,2013-01-13 17:59:00,
2013-01-13 21:04:00,59.6,47.0,30.14,West,270,6.7,8.7,63,0.00,,,0.00,WUHU216HW,2013-01-13 18:04:00,
2013-01-13 21:09:00,59.6,47.0,30.14,WNW,293,8.7,10.1,63,0.00,,,0.00,WUHU216HW,2013-01-13 18:09:00,
2013-01-13 21:14:00,59.6,47.0,30.14,NNW,338,7.4,10.1,63,0.00,,,0.00,WUHU216HW,2013-01-13 18:14:00,
2013-01-13 21:19:00,59.6,47.0,30.14,NW,315,8.1,10.3,63,0.00,,,0.00,WUHU216HW,2013-01-13 18:19:00,
2013-01-13 21:24:00,59.4,46.8,30.14,WNW,293,7.4,11.0,63,0.00,,,0.00,WUHU216HW,2013-01-13 18:24:00,
2013-01-13 21:29:00,59.4,46.8,30.14,North,0,8.3,11.0,63,0.00,,,0.00,WUHU216HW,2013-01-13 18:29:00,
2013-01-13 21:34:00,59.4,46.8,30.14,NW,315,9.2,10.5,63,0.00,,,0.00,WUHU216HW,2013-01-13 18:34:00,
2013-01-13 21:39:00,59.4,46.8,30.14,WNW,293,6.3,10.5,63,0.00,,,0.00,WUHU216HW,2013-01-13 18:39:00,
2013-01-13 21:44:00,59.4,46.8,30.13,WNW,293,7.6,9.2,63,0.00,,,0.00,WUHU216HW,2013-01-13 18:44:00,
2013-01-13 21:49:00,59.4,46.8,30.13,NW,315,5.8,8.7,63,0.00,,,0.00,WUHU216HW,2013-01-13 18:49:00,
2013-01-13 21:54:00,59.2,46.6,30.13,NW,315,4.5,8.7,63,0.00,,,0.00,WUHU216HW,2013-01-13 18:54:00,
2013-01-13 21:59:00,59.2,46.6,30.13,NW,315,6.9,8.9,63,0.00,,,0.00,WUHU216HW,2013-01-13 18:59:00,
2013-01-13 22:04:00,59.0,46.5,30.13,WNW,293,6.5,9.2,63,0.00,,,0.00,WUHU216HW,2013-01-13 19:04:00,
2013-01-13 22:09:00,59.0,46.8,30.13,West,270,8.5,9.2,64,0.00,,,0.00,WUHU216HW,2013-01-13 19:09:00,
2013-01-13 22:14:00,59.0,46.8,30.13,NW,315,8.1,9.4,64,0.00,,,0.00,WUHU216HW,2013-01-13 19:14:00,
2013-01-13 22:19:00,58.9,46.7,30.13,NW,315,7.6,9.4,64,0.00,,,0.00,WUHU216HW,2013-01-13 19:19:00,
2013-01-13 22:24:00,58.9,46.7,30.13,WNW,293,6.5,9.4,64,0.00,,,0.00,WUHU216HW,2013-01-13 19:24:00,
2013-01-13 22:29:00,58.9,46.7,30.13,NW,315,8.1,9.4,64,0.00,,,0.00,WUHU216HW,2013-01-13 19:29:00,
2013-01-13 22:34:00,58.9,46.7,30.12,WNW,293,7.4,8.7,64,0.00,,,0.00,WUHU216HW,2013-01-13 19:34:00,
2013-01-13 22:39:00,58.9,46.7,30.12,WNW,293,8.5,8.7,64,0.00,,,0.00,WUHU216HW,2013-01-13 19:39:00,
2013-01-13 22:44:00,58.9,46.7,30.12,NW,315,7.6,10.1,64,0.00,,,0.00,WUHU216HW,2013-01-13 19:44:00,
2013-01-13 22:49:00,58.9,46.7,30.12,NNW,338,6.3,10.1,64,0.00,,,0.00,WUHU216HW,2013-01-13 19:49:00,
2013-01-13 22:55:00,58.7,46.5,30.12,NW,315,7.6,10.5,64,0.00,,,0.00,WUHU216HW,2013-01-13 19:55:00,
2013-01-13 23:00:00,58.7,46.5,30.12,WNW,293,6.9,10.5,64,0.00,,,0.00,WUHU216HW,2013-01-13 20:00:00,
2013-01-13 23:05:00,58.7,46.5,30.12,WNW,293,6.9,10.5,64,0.00,,,0.00,WUHU216HW,2013-01-13 20:05:00,
2013-01-13 23:10:00,58.7,46.5,30.12,NW,315,6.7,9.2,64,0.00,,,0.00,WUHU216HW,2013-01-13 20:10:00,
2013-01-13 23:15:00,58.5,46.7,30.12,NW,315,9.2,9.2,65,0.00,,,0.00,WUHU216HW,2013-01-13 20:15:00,
2013-01-13 23:20:00,58.5,46.7,30.12,NW,315,8.5,10.3,65,0.00,,,0.00,WUHU216HW,2013-01-13 20:20:00,
2013-01-13 23:25:00,58.3,47.0,30.12,NW,315,5.8,10.3,66,0.00,,,0.00,WUHU216HW,2013-01-13 20:25:00,
2013-01-13 23:30:00,58.3,47.0,30.12,NW,315,6.9,9.8,66,0.00,,,0.00,WUHU216HW,2013-01-13 20:30:00,
2013-01-13 23:35:00,58.1,47.3,30.12,NW,315,5.6,8.5,67,0.00,,,0.00,WUHU216HW,2013-01-13 20:35:00,
2013-01-13 23:40:00,58.1,47.3,30.12,NW,315,6.3,8.9,67,0.00,,,0.00,WUHU216HW,2013-01-13 20:40:00,
2013-01-13 23:45:00,58.1,47.3,30.12,WNW,293,5.4,9.2,67,0.00,,,0.00,WUHU216HW,2013-01-13 20:45:00,
2013-01-13 23:50:00,58.0,47.1,30.12,NW,315,6.3,9.2,67,0.00,,,0.00,WUHU216HW,2013-01-13 20:50:00,
2013-01-13 23:55:00,58.0,47.1,30.12,West,270,8.5,8.5,67,0.00,,,0.00,WUHU216HW,2013-01-13 20:55:00,